This is the latest recevied weather packets stored in our database for station/object N3DOU-1. If no packets are shown the sender has not sent any weather packets the latest 10 day(s).
| Time | Temp. | Humidity | Pressure | Rain* | Wind** | Luminosity | Snow |
|---|---|---|---|---|---|---|---|
| 1777696886 | 12.22° C | 76% | 1012.5 hPa | 0 mm | - | - | - |
| 1777695983 | 12.78° C | 75% | 1012.3 hPa | 0 mm | - | - | - |
| 1777695085 | 12.78° C | 73% | 1012.2 hPa | 0 mm | - | - | - |
| 1777694184 | 12.22° C | 74% | 1012.1 hPa | 0 mm | - | - | - |
| 1777692384 | 11.67° C | 70% | 1011.9 hPa | 0 mm | - | - | - |
| 1777691485 | 12.22° C | 66% | 1011.7 hPa | 0 mm | - | - | - |
| 1777690583 | 12.22° C | 63% | 1011.8 hPa | 0 mm | - | - | - |
| 1777689684 | 12.22° C | 64% | 1011.9 hPa | 0 mm | - | - | - |
| 1777688784 | 12.22° C | 66% | 1011.8 hPa | 0 mm | - | - | - |
| 1777687884 | 12.22° C | 66% | 1012.2 hPa | 0 mm | - | - | - |
| 1777686983 | 12.22° C | 65% | 1012.1 hPa | 0 mm | - | - | - |
| 1777686084 | 12.22° C | 63% | 1012 hPa | 0 mm | - | - | - |
| 1777685184 | 12.22° C | 60% | 1012 hPa | 0 mm | - | - | - |
| 1777684284 | 12.22° C | 60% | 1011.8 hPa | 0 mm | - | - | - |
| 1777683384 | 12.22° C | 62% | 1011.3 hPa | 0 mm | - | - | - |
| 1777682484 | 12.78° C | 57% | 1011.4 hPa | 0 mm | - | - | - |
| 1777681583 | 13.33° C | 55% | 1011.3 hPa | 0 mm | - | - | - |
| 1777680684 | 13.89° C | 54% | 1011 hPa | 0 mm | - | - | - |
| 1777679784 | 13.89° C | 51% | 1011.1 hPa | 0 mm | - | - | - |
| 1777678883 | 14.44° C | 48% | 1011.3 hPa | 0 mm | - | - | - |
| 1777677983 | 15.56° C | 50% | 1011.2 hPa | 0 mm | - | - | - |
| 1777677085 | 15.56° C | 48% | 1011.2 hPa | 0 mm | - | - | - |
| 1777676186 | 16.67° C | 51% | 1011 hPa | 0 mm | - | - | - |
| 1777675284 | 17.22° C | 49% | 1011 hPa | 0 mm | - | - | - |
| 1777674388 | 17.78° C | 42% | 1011.2 hPa | 0 mm | - | - | - |
* Rain latest hour (hover to see other rain measurements)
** Current wind speed in m/s (hover to see current wind gust speed)